Overview Statistics Trail Chart Weather Telemetry Raw packets
 

This is the latest recevied weather packets stored in our database for station/object W5ITZ. If no packets are shown the sender has not sent any weather packets the latest 10 day(s).

<< 54 55 56 57 58 59 60 >>
Time Temp. Humidity Pressure Rain* Wind** Luminosity Snow
1787859908 37.22° C 40% 1013.4 hPa 0 mm - 865 W/m² -
1787859604 37.22° C 40% 1013.7 hPa 0 mm - 875 W/m² -
1787859303 37.22° C 40% 1013.3 hPa 0 mm - 887 W/m² -
1787858999 37.78° C 39% 1013.5 hPa 0 mm - 893 W/m² -
1787858695 37.22° C 38% 1013.5 hPa 0 mm - 898 W/m² -
1787858390 37.22° C 38% 1013.7 hPa 0 mm - 905 W/m² -
1787858085 36.67° C 40% 1013.8 hPa 0 mm - 910 W/m² -
1787857780 36.67° C 40% 1013.9 hPa 0 mm - 909 W/m² -
1787857476 36.67° C 38% 1014 hPa 0 mm - 924 W/m² -
1787857173 36.67° C 41% 1014.2 hPa 0 mm - 920 W/m² -
1787856869 36.67° C 41% 1014 hPa 0 mm - 920 W/m² -
1787856568 36.67° C 39% 1014.2 hPa 0 mm - 926 W/m² -
1787856264 36.67° C 39% 1014.3 hPa 0 mm - 933 W/m² -
1787855959 36.11° C 40% 1014.5 hPa 0 mm - 943 W/m² -
1787855659 36.11° C 41% 1014.4 hPa 0 mm - 933 W/m² -
1787855354 36.67° C 40% 1014.5 hPa 0 mm - 942 W/m² -
1787855049 36.67° C 40% 1014.7 hPa 0 mm - 947 W/m² -
1787854745 36.11° C 41% 1014.6 hPa 0 mm - 943 W/m² -
1787854444 35.56° C 43% 1014.6 hPa 0 mm - 940 W/m² -
1787854139 35° C 42% 1014.5 hPa 0 mm - 935 W/m² -
1787853834 35° C 43% 1014.9 hPa 0 mm - 949 W/m² -
1787853532 35° C 42% 1014.8 hPa 0 mm - 877 W/m² -
1787853227 35° C 44% 1014.9 hPa 0 mm - 839 W/m² -
1787852926 34.44° C 46% 1015 hPa 0 mm - 1081 W/m² -
1787852621 34.44° C 45% 1015 hPa 0 mm - 900 W/m² -

* Rain latest hour (hover to see other rain measurements)
** Current wind speed in m/s (hover to see current wind gust speed)